Погода в Протасове

Россия / Орловская область     53°04′15″N   36°29′35″E
темп.,
°C
ветер,
м/с
пор.,
м/с
влажн.,
%
обл.,
%
осадки,
мм/ч
давл.,
гПа
погр.,
м
15 апреля, чт
чт1500:00+12в3359100 0.0 101440
03:00+12всв2257100 0.0 101428
06:00+11в3760100 0.0 1013138
09:00+13юв61164100 0.0 1013765
12:00+15юв6859100 0.0 1013897
15:00+14юв4668100 2.1 1013581
18:00+13всв226880 1.4 101251
21:00+12вюв367194 1.6 1013115
16 апреля, пт
пт1600:00+11юв347126 0.0 101368
03:00+8юв36836 0.0 101493
06:00+7юв369059 0.1 1016126
09:00+10юв3571100 0.2 1016406
12:00+14юв575514 0.0 10161276
15:00+16ююв79389 0.0 10162469
18:00+15ююв57445 0.0 1016857
21:00+10зюз116525 0.0 101710
17 апреля, сб
сб1700:00+10св466865 0.0 1018119
03:00+9св357579 0.3 1018105
06:00+8св3478100 0.0 101877
09:00+9сз2391100 0.4 1018270
12:00+9в5896100 8.3 1018495
15:00+8ю4893100 17.7 1018552
18:00+7з2396100 7.4 1018224
21:00+7ююв2396100 8.1 1018215
18 апреля, вс
вс1800:00+6ююв2395100 0.0 1019128
03:00+6юз2296100 0.6 101974
06:00+6зсз1197100 5.3 101829
09:00+6с0095100 7.8 101863
12:00+6юв2296100 1.3 1019200
15:00+7ююв2392100 1.6 1020328
18:00+7в3481100 0.1 1021663
21:00+6св369097 0.1 1022126
19 апреля, пн
пн1900:00+5св410956 0.0 1022269
03:00+4св489611 0.0 1023204
06:00+3св5119414 0.0 1023343
09:00+7всв798284 0.0 1023725
12:00+8всв588299 0.1 1023921
15:00+10всв5969100 0.1 10221360
18:00+9всв697735 0.1 1023946
21:00+7всв61281100 0.1 1023746